KQA722 HKJK-FWKI

Flight info

Callsign KQA722
Flight time 1h 50m
Altitude 40000
Route NAVE2D NV UT912 DO UM315 IMKAL DCT UTOKO UTOKO1A
Aircraft B772/H-SDE2E3FGHIJ5LORVWXY/LB1D1

Departure

Time 2026-04-16 22:58
Airport Jomo Kenyatta International Airport (HKJK)

Arrival

Time 2026-04-17 00:48
Airport Kamuzu International Airport (FWKI)
Time Latitude Longitude Altitude Speed Heading
2026-04-16 22:32 -1.33168 36.92335 5334 ft 0 kts 56°
2026-04-16 22:50 -1.33181 36.92316 5335 ft 4 kts 56°
2026-04-16 22:50 -1.33195 36.92294 5335 ft 4 kts 50°
2026-04-16 22:51 -1.33216 36.92279 5335 ft 4 kts 11°
2026-04-16 22:51 -1.33241 36.92278 5334 ft 3 kts 357°
2026-04-16 22:51 -1.33268 36.92279 5335 ft 4 kts 357°
2026-04-16 22:51 -1.33275 36.92279 5334 ft 0 kts 357°
2026-04-16 22:53 -1.33262 36.92279 5331 ft 6 kts 357°
2026-04-16 22:53 -1.33217 36.92267 5332 ft 7 kts 332°
2026-04-16 22:53 -1.33174 36.92244 5333 ft 7 kts 335°
2026-04-16 22:54 -1.33120 36.92226 5332 ft 9 kts 347°
2026-04-16 22:54 -1.33053 36.92219 5333 ft 10 kts 360°
2026-04-16 22:54 -1.32977 36.92230 5333 ft 12 kts 15°
2026-04-16 22:54 -1.32935 36.92245 5332 ft 0 kts 23°
2026-04-16 22:55 -1.32924 36.92250 5334 ft 3 kts 23°
2026-04-16 22:55 -1.32873 36.92256 5333 ft 12 kts 346°
2026-04-16 22:55 -1.32788 36.92196 5335 ft 11 kts 299°
2026-04-16 22:55 -1.32821 36.92108 5337 ft 18 kts 234°
2026-04-16 22:56 -1.32912 36.91987 5338 ft 26 kts 233°
2026-04-16 22:56 -1.33002 36.91854 5341 ft 13 kts 254°
2026-04-16 22:56 -1.32943 36.91781 5345 ft 17 kts 324°
2026-04-16 22:56 -1.32826 36.91698 5343 ft 24 kts 325°
2026-04-16 22:57 -1.32753 36.91659 5344 ft 10 kts
2026-04-16 22:57 -1.32682 36.91740 5339 ft 30 kts 54°
2026-04-16 22:57 -1.32431 36.92084 5319 ft 95 kts 53°
2026-04-16 22:57 -1.31908 36.92801 5315 ft 154 kts 55°
2026-04-16 22:58 -1.31214 36.93756 5626 ft 175 kts 52°
2026-04-16 22:58 -1.30515 36.94723 6482 ft 171 kts 54°
2026-04-16 22:58 -1.29821 36.95676 7216 ft 169 kts 54°
2026-04-16 22:58 -1.29086 36.96679 7415 ft 189 kts 56°
2026-04-16 22:59 -1.28674 36.97952 7534 ft 206 kts 95°
2026-04-16 22:59 -1.29278 36.99284 7625 ft 232 kts 134°
2026-04-16 22:59 -1.30747 37.00063 7886 ft 252 kts 166°
2026-04-16 22:59 -1.32583 37.00081 8092 ft 274 kts 191°
2026-04-16 23:00 -1.34453 36.99608 8622 ft 281 kts 194°
2026-04-16 23:00 -1.36358 36.99058 9173 ft 290 kts 194°
2026-04-16 23:00 -1.38336 36.98495 9719 ft 299 kts 194°
2026-04-16 23:00 -1.40342 36.97925 10375 ft 302 kts 194°
2026-04-16 23:01 -1.42427 36.97335 10642 ft 323 kts 194°
2026-04-16 23:01 -1.44674 36.96699 10854 ft 346 kts 194°
2026-04-16 23:01 -1.47029 36.96030 11428 ft 357 kts 194°
2026-04-16 23:01 -1.49449 36.95340 12197 ft 364 kts 194°
2026-04-16 23:02 -1.51896 36.94642 13164 ft 367 kts 195°
2026-04-16 23:02 -1.54362 36.93938 14083 ft 371 kts 195°
2026-04-16 23:02 -1.56866 36.93223 14841 ft 378 kts 195°
2026-04-16 23:02 -1.59411 36.92497 15661 ft 383 kts 195°
2026-04-16 23:03 -1.61982 36.91763 16527 ft 387 kts 195°
2026-04-16 23:03 -1.64590 36.91019 17349 ft 392 kts 195°
2026-04-16 23:03 -1.67235 36.90264 18140 ft 398 kts 195°
2026-04-16 23:03 -1.69922 36.89498 18882 ft 404 kts 195°
2026-04-16 23:04 -1.72632 36.88725 19626 ft 408 kts 195°
2026-04-16 23:04 -1.75378 36.87942 20386 ft 412 kts 195°
2026-04-16 23:04 -1.78113 36.87162 21127 ft 416 kts 195°
2026-04-16 23:04 -1.80914 36.86363 21879 ft 421 kts 195°
2026-04-16 23:05 -1.83744 36.85555 22622 ft 425 kts 195°
2026-04-16 23:05 -1.86647 36.84727 23322 ft 431 kts 195°
2026-04-16 23:05 -1.89546 36.83901 23965 ft 436 kts 195°
2026-04-16 23:05 -1.92438 36.83075 24600 ft 439 kts 195°
2026-04-16 23:06 -1.95389 36.82233 25275 ft 441 kts 194°
2026-04-16 23:06 -1.98346 36.81390 25918 ft 444 kts 195°
2026-04-16 23:06 -2.01329 36.80538 26560 ft 446 kts 195°
2026-04-16 23:06 -2.04324 36.79684 27165 ft 449 kts 194°
2026-04-16 23:07 -2.07337 36.78824 27744 ft 452 kts 194°
2026-04-16 23:07 -2.10384 36.77954 28295 ft 455 kts 195°
2026-04-16 23:07 -2.13442 36.77081 28839 ft 458 kts 195°
2026-04-16 23:07 -2.16522 36.76203 29368 ft 462 kts 195°
2026-04-16 23:08 -2.19635 36.75315 29822 ft 466 kts 195°
2026-04-16 23:08 -2.22725 36.74432 30252 ft 469 kts 195°
2026-04-16 23:08 -2.25862 36.73536 30761 ft 469 kts 195°
2026-04-16 23:08 -2.29010 36.72638 31155 ft 471 kts 195°
2026-04-16 23:09 -2.32174 36.71734 31491 ft 475 kts 195°
2026-04-16 23:09 -2.35356 36.70826 31844 ft 477 kts 195°
2026-04-16 23:09 -2.38556 36.69912 32171 ft 480 kts 195°
2026-04-16 23:09 -2.41778 36.68992 32489 ft 482 kts 195°
2026-04-16 23:10 -2.45002 36.68071 32825 ft 484 kts 195°
2026-04-16 23:10 -2.47154 36.67457 33019 ft 485 kts 195°
2026-04-16 23:10 -2.51531 36.66288 33400 ft 487 kts 194°
2026-04-16 23:10 -2.53714 36.65742 33599 ft 488 kts 194°
2026-04-16 23:11 -2.57018 36.64932 33884 ft 489 kts 194°
2026-04-16 23:11 -2.60322 36.64123 34178 ft 489 kts 194°
2026-04-16 23:11 -2.63626 36.63308 34551 ft 487 kts 194°
2026-04-16 23:11 -2.66908 36.62490 34849 ft 487 kts 194°
2026-04-16 23:12 -2.70194 36.61665 35127 ft 487 kts 194°
2026-04-16 23:12 -2.73480 36.60838 35472 ft 486 kts 194°
2026-04-16 23:12 -2.76756 36.60011 35759 ft 486 kts 194°
2026-04-16 23:12 -2.80040 36.59182 36076 ft 486 kts 194°
2026-04-16 23:13 -2.83321 36.58355 36401 ft 485 kts 194°
2026-04-16 23:13 -2.86591 36.57531 36752 ft 484 kts 194°
2026-04-16 23:13 -2.89854 36.56709 37088 ft 484 kts 194°
2026-04-16 23:13 -2.93117 36.55887 37405 ft 483 kts 194°
2026-04-16 23:14 -2.96379 36.55064 37724 ft 483 kts 194°
2026-04-16 23:14 -2.99636 36.54244 38045 ft 482 kts 194°
2026-04-16 23:14 -3.02890 36.53413 38362 ft 482 kts 195°
2026-04-16 23:14 -3.06128 36.52557 38668 ft 482 kts 195°
2026-04-16 23:15 -3.12587 36.50824 39213 ft 480 kts 195°
2026-04-16 23:15 -3.15823 36.49958 39449 ft 480 kts 196°
2026-04-16 23:15 -3.19009 36.49110 39683 ft 479 kts 196°
2026-04-16 23:16 -3.22232 36.48253 39914 ft 479 kts 196°
2026-04-16 23:16 -3.28713 36.46534 40021 ft 483 kts 195°
2026-04-16 23:17 -3.35199 36.44897 40037 ft 478 kts 195°
2026-04-16 23:17 -3.41665 36.43299 40029 ft 478 kts 194°
2026-04-16 23:18 -3.48119 36.41693 40032 ft 478 kts 195°
2026-04-16 23:18 -3.54569 36.40079 40031 ft 478 kts 195°
2026-04-16 23:19 -3.61030 36.38461 40027 ft 479 kts 195°
2026-04-16 23:19 -3.67455 36.36852 40026 ft 479 kts 195°
2026-04-16 23:20 -3.73937 36.35228 40012 ft 480 kts 195°
2026-04-16 23:20 -3.80403 36.33609 40009 ft 479 kts 195°
2026-04-16 23:21 -3.86873 36.31987 39998 ft 478 kts 195°
2026-04-16 23:21 -3.93264 36.30386 40008 ft 478 kts 195°
2026-04-16 23:22 -3.99710 36.28748 39999 ft 478 kts 195°
2026-04-16 23:22 -4.06142 36.27070 40001 ft 477 kts 196°
2026-04-16 23:23 -4.12524 36.25403 40005 ft 477 kts 196°
2026-04-16 23:23 -4.18949 36.23730 39991 ft 477 kts 195°
2026-04-16 23:24 -4.25359 36.22064 39999 ft 476 kts 195°
2026-04-16 23:24 -4.31776 36.20396 39996 ft 476 kts 196°
2026-04-16 23:25 -4.38190 36.18728 39998 ft 475 kts 196°
2026-04-16 23:25 -4.44594 36.17062 40000 ft 475 kts 196°
2026-04-16 23:26 -4.51007 36.15393 40003 ft 476 kts 196°
2026-04-16 23:26 -4.57409 36.13727 40003 ft 476 kts 196°
2026-04-16 23:27 -4.63787 36.12059 40000 ft 476 kts 196°
2026-04-16 23:27 -4.70199 36.10353 40000 ft 476 kts 196°
2026-04-16 23:28 -4.76611 36.08647 40000 ft 477 kts 196°
2026-04-16 23:28 -4.83026 36.06943 40000 ft 477 kts 196°
2026-04-16 23:29 -4.89439 36.05240 40000 ft 477 kts 196°
2026-04-16 23:29 -4.95863 36.03541 40003 ft 477 kts 196°
2026-04-16 23:30 -5.02285 36.01868 39999 ft 477 kts 196°
2026-04-16 23:30 -5.08724 36.00193 40002 ft 478 kts 196°
2026-04-16 23:31 -5.15161 35.98513 39997 ft 478 kts 196°
2026-04-16 23:31 -5.21553 35.96843 39995 ft 478 kts 196°
2026-04-16 23:32 -5.27986 35.95162 39988 ft 477 kts 196°
2026-04-16 23:32 -5.34415 35.93482 39985 ft 477 kts 196°
2026-04-16 23:33 -5.40841 35.91798 39983 ft 477 kts 197°
2026-04-16 23:33 -5.47231 35.90016 39983 ft 476 kts 197°
2026-04-16 23:34 -5.53616 35.88204 39981 ft 476 kts 197°
2026-04-16 23:34 -5.59998 35.86411 39975 ft 476 kts 197°
2026-04-16 23:35 -5.66389 35.84640 39973 ft 476 kts 195°
2026-04-16 23:35 -5.72895 35.83301 39967 ft 478 kts 193°
2026-04-16 23:36 -5.79432 35.82059 39972 ft 478 kts 192°
2026-04-16 23:36 -5.85930 35.80802 39968 ft 478 kts 193°
2026-04-16 23:37 -5.92460 35.79517 39968 ft 478 kts 193°
2026-04-16 23:37 -5.98994 35.78229 39968 ft 479 kts 193°
2026-04-16 23:38 -6.05550 35.76937 39965 ft 479 kts 193°
2026-04-16 23:38 -6.12079 35.75650 39963 ft 479 kts 193°
2026-04-16 23:39 -6.18567 35.74358 39967 ft 478 kts 194°
2026-04-16 23:39 -6.25036 35.72790 39964 ft 478 kts 196°
2026-04-16 23:40 -6.31486 35.71115 39966 ft 479 kts 196°
2026-04-16 23:40 -6.37955 35.69464 39962 ft 479 kts 196°
2026-04-16 23:41 -6.44432 35.67841 39955 ft 479 kts 195°
2026-04-16 23:41 -6.50908 35.66230 39960 ft 479 kts 195°
2026-04-16 23:42 -6.57382 35.64619 39959 ft 479 kts 195°
2026-04-16 23:42 -6.63852 35.63007 39956 ft 479 kts 195°
2026-04-16 23:43 -6.70322 35.61393 39950 ft 479 kts 195°
2026-04-16 23:43 -6.76790 35.59780 39949 ft 479 kts 195°
2026-04-16 23:44 -6.83265 35.58164 39948 ft 479 kts 196°
2026-04-16 23:44 -6.89733 35.56550 39943 ft 479 kts 196°
2026-04-16 23:45 -6.96163 35.54944 39943 ft 479 kts 196°
2026-04-16 23:45 -7.02638 35.53327 39942 ft 479 kts 196°
2026-04-16 23:46 -7.09117 35.51709 39941 ft 479 kts 196°
2026-04-16 23:46 -7.15593 35.50091 39940 ft 479 kts 196°
2026-04-16 23:47 -7.22067 35.48472 39939 ft 479 kts 196°
2026-04-16 23:47 -7.28552 35.46851 39940 ft 480 kts 196°
2026-04-16 23:48 -7.35027 35.45232 39942 ft 480 kts 196°
2026-04-16 23:48 -7.41509 35.43610 39944 ft 480 kts 196°
2026-04-16 23:49 -7.47990 35.41988 39957 ft 479 kts 196°
2026-04-16 23:49 -7.54464 35.40368 39950 ft 479 kts 196°
2026-04-16 23:50 -7.60884 35.38760 39962 ft 478 kts 196°
2026-04-16 23:50 -7.67348 35.37141 39963 ft 478 kts 196°
2026-04-16 23:51 -7.73812 35.35522 39981 ft 478 kts 196°
2026-04-16 23:51 -7.80272 35.33902 39976 ft 479 kts 197°
2026-04-16 23:52 -7.86736 35.32282 39995 ft 479 kts 197°
2026-04-16 23:52 -7.93207 35.30659 40000 ft 479 kts 197°
2026-04-16 23:53 -7.99642 35.29044 39998 ft 479 kts 197°
2026-04-16 23:53 -8.06122 35.27418 40022 ft 479 kts 197°
2026-04-16 23:54 -8.12594 35.25793 40014 ft 479 kts 197°
2026-04-16 23:54 -8.19068 35.24168 40017 ft 479 kts 197°
2026-04-16 23:55 -8.25540 35.22541 40018 ft 479 kts 197°
2026-04-16 23:55 -8.32017 35.20914 40016 ft 480 kts 197°
2026-04-16 23:56 -8.38493 35.19286 40022 ft 479 kts 197°
2026-04-16 23:56 -8.44967 35.17657 40022 ft 479 kts 197°
2026-04-16 23:57 -8.51437 35.16029 40022 ft 479 kts 197°
2026-04-16 23:57 -8.57914 35.14399 40030 ft 479 kts 197°
2026-04-16 23:58 -8.64349 35.12785 40023 ft 480 kts 197°
2026-04-16 23:58 -8.70838 35.11163 40019 ft 480 kts 197°
2026-04-16 23:59 -8.77310 35.09545 40029 ft 479 kts 197°
2026-04-16 23:59 -8.82731 35.08187 40032 ft 479 kts 197°
2026-04-17 00:00 -8.89160 35.06575 40034 ft 479 kts 197°
2026-04-17 00:00 -8.95638 35.04951 40027 ft 479 kts 197°
2026-04-17 00:01 -9.02112 35.03328 40041 ft 479 kts 197°
2026-04-17 00:01 -9.08594 35.01702 40037 ft 480 kts 197°
2026-04-17 00:02 -9.15081 35.00074 40037 ft 480 kts 197°
2026-04-17 00:02 -9.21562 34.98447 40046 ft 480 kts 197°
2026-04-17 00:03 -9.28040 34.96820 40046 ft 480 kts 197°
2026-04-17 00:03 -9.34522 34.95181 40048 ft 480 kts 197°
2026-04-17 00:04 -9.40990 34.93506 40048 ft 479 kts 198°
2026-04-17 00:04 -9.47447 34.91825 40048 ft 479 kts 198°
2026-04-17 00:05 -9.53899 34.90150 40049 ft 478 kts 198°
2026-04-17 00:05 -9.60306 34.88488 40046 ft 478 kts 198°
2026-04-17 00:06 -9.66751 34.86818 40047 ft 478 kts 198°
2026-04-17 00:06 -9.73194 34.85145 40042 ft 478 kts 198°
2026-04-17 00:07 -9.79640 34.83472 40038 ft 478 kts 198°
2026-04-17 00:07 -9.86082 34.81800 40024 ft 478 kts 198°
2026-04-17 00:08 -9.92539 34.80123 40017 ft 479 kts 198°
2026-04-17 00:08 -9.98999 34.78445 40009 ft 479 kts 198°
2026-04-17 00:09 -10.05465 34.76763 40012 ft 480 kts 198°
2026-04-17 00:09 -10.11926 34.75083 40004 ft 480 kts 198°
2026-04-17 00:10 -10.18400 34.73398 39981 ft 480 kts 198°
2026-04-17 00:10 -10.24868 34.71715 39967 ft 479 kts 198°
2026-04-17 00:11 -10.31319 34.70036 39970 ft 477 kts 198°
2026-04-17 00:11 -10.37700 34.68374 39962 ft 475 kts 198°
2026-04-17 00:12 -10.44099 34.66705 39956 ft 473 kts 198°
2026-04-17 00:12 -10.50474 34.65042 39963 ft 473 kts 198°
2026-04-17 00:13 -10.56849 34.63382 39972 ft 473 kts 198°
2026-04-17 00:13 -10.63261 34.61813 39955 ft 474 kts 197°
2026-04-17 00:14 -10.69684 34.60287 39953 ft 474 kts 197°
2026-04-17 00:14 -10.76102 34.58749 39954 ft 474 kts 197°
2026-04-17 00:15 -10.82521 34.57199 39956 ft 474 kts 197°
2026-04-17 00:15 -10.88931 34.55648 39961 ft 474 kts 197°
2026-04-17 00:16 -10.95339 34.54098 39953 ft 473 kts 197°
2026-04-17 00:16 -11.01699 34.52558 39946 ft 472 kts 197°
2026-04-17 00:17 -11.08089 34.51011 39950 ft 472 kts 197°
2026-04-17 00:17 -11.14472 34.49465 39950 ft 471 kts 197°
2026-04-17 00:18 -11.20832 34.47865 39951 ft 470 kts 199°
2026-04-17 00:18 -11.27164 34.46141 39944 ft 470 kts 198°
2026-04-17 00:19 -11.33495 34.44428 39944 ft 471 kts 198°
2026-04-17 00:19 -11.39836 34.42731 39943 ft 471 kts 198°
2026-04-17 00:20 -11.46202 34.41103 39950 ft 472 kts 197°
2026-04-17 00:20 -11.52576 34.39512 39960 ft 472 kts 197°
2026-04-17 00:21 -11.58908 34.37924 39949 ft 472 kts 197°
2026-04-17 00:21 -11.61921 34.37165 39948 ft 472 kts 197°
2026-04-17 00:22 -11.63979 34.36645 39947 ft 471 kts 197°
2026-04-17 00:23 -11.70349 34.35034 39944 ft 471 kts 197°
2026-04-17 00:23 -11.76718 34.33422 39943 ft 471 kts 197°
2026-04-17 00:24 -11.79862 34.32626 39739 ft 474 kts 197°
2026-04-17 00:24 -11.83127 34.31798 39088 ft 479 kts 197°
2026-04-17 00:24 -11.86317 34.30990 38430 ft 478 kts 197°
2026-04-17 00:24 -11.89544 34.30173 37656 ft 478 kts 197°
2026-04-17 00:25 -11.92772 34.29356 37098 ft 474 kts 197°
2026-04-17 00:25 -11.95961 34.28550 36591 ft 470 kts 197°
2026-04-17 00:25 -11.99120 34.27751 36103 ft 465 kts 197°
2026-04-17 00:25 -12.02251 34.26958 35623 ft 462 kts 197°
2026-04-17 00:26 -12.05365 34.26169 35123 ft 459 kts 197°
2026-04-17 00:26 -12.08460 34.25383 34619 ft 457 kts 197°
2026-04-17 00:26 -12.11534 34.24603 34110 ft 455 kts 197°
2026-04-17 00:26 -12.14596 34.23825 33545 ft 453 kts 196°
2026-04-17 00:27 -12.17647 34.23051 33033 ft 450 kts 196°
2026-04-17 00:27 -12.20638 34.22291 32534 ft 447 kts 196°
2026-04-17 00:27 -12.23682 34.21519 32040 ft 443 kts 196°
2026-04-17 00:27 -12.26658 34.20763 31556 ft 440 kts 196°
2026-04-17 00:28 -12.29590 34.20018 31079 ft 437 kts 196°
2026-04-17 00:28 -12.32566 34.19261 30586 ft 435 kts 196°
2026-04-17 00:28 -12.35457 34.18526 30103 ft 432 kts 196°
2026-04-17 00:28 -12.38371 34.17786 29544 ft 429 kts 196°
2026-04-17 00:29 -12.41257 34.17052 28995 ft 425 kts 196°
2026-04-17 00:29 -12.44106 34.16328 28488 ft 420 kts 196°
2026-04-17 00:29 -12.46939 34.15608 27996 ft 416 kts 196°
2026-04-17 00:29 -12.49733 34.14897 27525 ft 412 kts 196°
2026-04-17 00:30 -12.52499 34.14193 27048 ft 407 kts 196°
2026-04-17 00:30 -12.55241 34.13495 26580 ft 404 kts 196°
2026-04-17 00:30 -12.57959 34.12803 26135 ft 400 kts 196°
2026-04-17 00:30 -12.60654 34.12116 25686 ft 397 kts 196°
2026-04-17 00:31 -12.63322 34.11436 25239 ft 394 kts 196°
2026-04-17 00:31 -12.65989 34.10756 24792 ft 392 kts 196°
2026-04-17 00:31 -12.68628 34.10084 24351 ft 390 kts 196°
2026-04-17 00:31 -12.71261 34.09412 23912 ft 389 kts 196°
2026-04-17 00:32 -12.73878 34.08745 23437 ft 387 kts 196°
2026-04-17 00:32 -12.76453 34.08088 22946 ft 385 kts 196°
2026-04-17 00:32 -12.79041 34.07428 22497 ft 382 kts 196°
2026-04-17 00:32 -12.81614 34.06771 22044 ft 379 kts 196°
2026-04-17 00:33 -12.84160 34.06121 21613 ft 376 kts 195°
2026-04-17 00:33 -12.86691 34.05475 21194 ft 373 kts 195°
2026-04-17 00:33 -12.89208 34.04832 20769 ft 371 kts 195°
2026-04-17 00:33 -12.91704 34.04195 20340 ft 369 kts 195°
2026-04-17 00:34 -12.94189 34.03560 19924 ft 367 kts 195°
2026-04-17 00:34 -12.96664 34.02928 19496 ft 366 kts 194°
2026-04-17 00:34 -12.99128 34.02298 19059 ft 365 kts 194°
2026-04-17 00:34 -13.01565 34.01590 18631 ft 364 kts 199°
2026-04-17 00:35 -13.03934 34.00695 18196 ft 363 kts 201°
2026-04-17 00:35 -13.06269 33.99740 17720 ft 361 kts 202°
2026-04-17 00:35 -13.08600 33.98779 17280 ft 359 kts 202°
2026-04-17 00:35 -13.10915 33.97835 16851 ft 357 kts 201°
2026-04-17 00:36 -13.13223 33.96908 16399 ft 355 kts 201°
2026-04-17 00:36 -13.15485 33.96008 15995 ft 353 kts 201°
2026-04-17 00:36 -13.17769 33.95106 15579 ft 351 kts 201°
2026-04-17 00:36 -13.20045 33.94210 15148 ft 349 kts 201°
2026-04-17 00:37 -13.22310 33.93321 14726 ft 348 kts 201°
2026-04-17 00:37 -13.24568 33.92435 14297 ft 347 kts 201°
2026-04-17 00:37 -13.26820 33.91551 13862 ft 346 kts 200°
2026-04-17 00:37 -13.29066 33.90670 13385 ft 345 kts 200°
2026-04-17 00:38 -13.31308 33.89789 12949 ft 344 kts 200°
2026-04-17 00:38 -13.33536 33.88914 12507 ft 342 kts 200°
2026-04-17 00:38 -13.35751 33.88044 12077 ft 340 kts 200°
2026-04-17 00:38 -13.37952 33.87180 11641 ft 338 kts 200°
2026-04-17 00:39 -13.40145 33.86318 11219 ft 336 kts 200°
2026-04-17 00:39 -13.42325 33.85462 10793 ft 335 kts 200°
2026-04-17 00:39 -13.44499 33.84608 10395 ft 332 kts 200°
2026-04-17 00:39 -13.46608 33.83761 10258 ft 317 kts 204°
2026-04-17 00:40 -13.48363 33.82490 10106 ft 305 kts 229°
2026-04-17 00:40 -13.49587 33.80847 9916 ft 284 kts 233°
2026-04-17 00:40 -13.50788 33.79207 9594 ft 283 kts 232°
2026-04-17 00:40 -13.51983 33.77594 9262 ft 286 kts 232°
2026-04-17 00:41 -13.53194 33.75962 8930 ft 288 kts 232°
2026-04-17 00:41 -13.54395 33.74346 8598 ft 288 kts 232°
2026-04-17 00:41 -13.55625 33.72692 8259 ft 288 kts 232°
2026-04-17 00:41 -13.56842 33.71057 7936 ft 288 kts 231°
2026-04-17 00:42 -13.58045 33.69443 7597 ft 288 kts 231°
2026-04-17 00:42 -13.59261 33.67811 7287 ft 288 kts 231°
2026-04-17 00:42 -13.60469 33.66190 7148 ft 280 kts 231°
2026-04-17 00:42 -13.61640 33.64616 7063 ft 279 kts 231°
2026-04-17 00:43 -13.62833 33.63015 6932 ft 283 kts 231°
2026-04-17 00:43 -13.64097 33.61541 6852 ft 267 kts 214°
2026-04-17 00:43 -13.65713 33.60822 6840 ft 245 kts 182°
2026-04-17 00:43 -13.67270 33.61056 6807 ft 213 kts 147°
2026-04-17 00:44 -13.68234 33.62048 6811 ft 192 kts 111°
2026-04-17 00:44 -13.68521 33.63349 6718 ft 182 kts 100°
2026-04-17 00:44 -13.68910 33.64538 6665 ft 170 kts 110°
2026-04-17 00:44 -13.69380 33.65642 6586 ft 167 kts 114°
2026-04-17 00:45 -13.69968 33.66682 6394 ft 169 kts 119°
2026-04-17 00:45 -13.70612 33.67695 6198 ft 170 kts 120°
2026-04-17 00:45 -13.71302 33.68681 5973 ft 169 kts 124°
2026-04-17 00:45 -13.71783 33.69303 5823 ft 166 kts 125°
2026-04-17 00:46 -13.72521 33.70213 5594 ft 166 kts 126°
2026-04-17 00:46 -13.73264 33.71125 5397 ft 167 kts 126°
2026-04-17 00:46 -13.74003 33.72037 5185 ft 163 kts 126°
2026-04-17 00:46 -13.74698 33.72895 4975 ft 148 kts 126°
2026-04-17 00:47 -13.75344 33.73689 4818 ft 145 kts 126°
2026-04-17 00:47 -13.75987 33.74488 4624 ft 146 kts 126°
2026-04-17 00:47 -13.76634 33.75288 4419 ft 146 kts 127°
2026-04-17 00:47 -13.77286 33.76091 4221 ft 148 kts 128°
2026-04-17 00:48 -13.77953 33.76909 4053 ft 150 kts 129°
2026-04-17 00:48 -13.78584 33.77668 4030 ft 122 kts 130°
2026-04-17 00:48 -13.79014 33.78194 4027 ft 75 kts 130°
2026-04-17 00:48 -13.79259 33.78493 4027 ft 44 kts 130°
2026-04-17 00:49 -13.79333 33.78625 4027 ft 11 kts 79°
2026-04-17 00:49 -13.79289 33.78677 4028 ft 9 kts 40°
2026-04-17 00:49 -13.79239 33.78716 4028 ft 9 kts 23°
2026-04-17 00:49 -13.79182 33.78692 4028 ft 11 kts 310°
2026-04-17 00:50 -13.79127 33.78625 4028 ft 13 kts 309°
2026-04-17 00:50 -13.79063 33.78545 4029 ft 16 kts 309°
2026-04-17 00:50 -13.78989 33.78453 4029 ft 18 kts 309°
2026-04-17 00:50 -13.78906 33.78351 4029 ft 19 kts 310°
2026-04-17 00:51 -13.78820 33.78247 4029 ft 19 kts 310°
2026-04-17 00:51 -13.78730 33.78137 4029 ft 21 kts 310°
2026-04-17 00:51 -13.78636 33.78021 4029 ft 21 kts 309°
2026-04-17 00:51 -13.78538 33.77899 4029 ft 23 kts 310°
2026-04-17 00:52 -13.78435 33.77773 4030 ft 23 kts 310°
2026-04-17 00:52 -13.78331 33.77645 4030 ft 11 kts 310°
2026-04-17 00:52 -13.78264 33.77633 4031 ft 12 kts 31°
2026-04-17 00:52 -13.78195 33.77690 4031 ft 14 kts 40°
2026-04-17 00:53 -13.78116 33.77757 4030 ft 16 kts 40°
2026-04-17 00:53 -13.78054 33.77817 4030 ft 7 kts 69°
2026-04-17 00:53 -13.78073 33.77865 4030 ft 8 kts 126°
2026-04-17 00:53 -13.78087 33.77883 4030 ft 0 kts 129°